Wind_Speed
85 85 85 85 85 86 86 87 88 88 89 90 90 90 91 90 89 89 88 88 88 88 88 88 88 89 89 90 90 91 91 92 93 93 92 92 92 93 94 95 96 96 96 97 97 98 98 97 97 97 98 98 97 95 93 91 89 87 84 81 80 80 81 83 83 85 88 91 91 91 89 90 92 93 92 89 88 87 86 84 85 86 88 90 92
88 87 87 87 87 88 89 90 90 91 91 92 92 92 92 92 91 90 90 90 90 90 90 90 90 91 92 92 93 93 94 94 95 95 95 95 95 95 97 98 98 99 99 99 99 99 99 99 98 98 99 99 97 94 91 89 88 85 82 81 81 82 85 87 87 89 92 92 91 90 90 90 90 89 88 87 87 86 85 85 86 88 90 93 94
90 90 90 90 90 90 91 91 92 93 93 94 94 94 94 94 93 92 92 92 92 92 92 93 93 94 94 95 95 96 96 97 97 97 98 98 98 98 99 99 100 101 101 101 101 101 101 100 100 100 100 99 97 93 91 89 87 84 83 83 84 87 89 89 89 91 91 90 89 90 90 89 86 86 87 87 85 83 84 87 89 92 94 96 95
93 93 92 92 92 92 93 93 94 94 95 95 96 96 96 95 95 94 94 94 94 94 95 95 96 96 97 98 98 99 99 100 100 100 100 101 101 101 102 102 102 103 103 103 103 103 103 102 102 102 101 99 96 93 92 91 89 88 87 87 88 90 89 88 88 90 89 89 90 90 88 86 85 87 86 83 82 84 87 90 92 95 96 96 96
96 96 96 96 96 96 96 96 96 97 97 97 98 98 98 98 97 97 97 97 97 98 98 98 99 99 99 100 101 101 102 102 103 103 104 104 104 104 105 105 105 105 105 105 105 105 105 105 104 104 102 100 98 96 94 93 92 90 89 89 89 87 85 85 87 89 89 90 90 88 85 85 86 86 84 83 85 90 92 94 94 95 96 97 98
101 100 100 100 99 100 100 100 100 100 100 100 100 100 100 100 100 100 100 100 101 101 101 101 101 102 102 102 103 104 105 105 106 106 107 107 107 107 108 108 108 108 108 107 107 107 107 107 106 105 102 100 99 97 95 93 92 90 89 88 86 83 83 86 88 88 89 89 88 85 84 86 87 86 86 88 91 93 94 95 96 97 97 98 99
105 104 104 103 103 103 103 103 104 103 103 103 103 103 103 103 103 103 103 103 103 104 104 104 104 104 105 105 106 106 107 108 108 109 110 110 111 111 111 111 110 110 110 110 110 109 108 107 105 103 101 99 97 95 93 92 91 89 88 86 83 82 85 88 89 89 89 88 86 85 85 87 88 88 90 93 93 93 94 96 98 98 99 100 101
109 108 107 107 107 107 107 107 107 107 106 106 106 106 106 106 106 106 106 106 106 107 107 107 107 107 108 108 109 109 110 110 111 112 113 113 114 114 114 113 113 112 112 111 110 109 106 104 101 99 97 95 93 91 91 90 90 88 87 86 85 86 89 90 91 90 88 86 85 86 87 88 89 92 94 94 95 96 98 99 99 100 102 103 103
112 112 111 111 110 110 110 110 110 110 110 109 109 109 109 109 109 109 109 110 110 110 110 110 110 111 111 111 112 112 113 114 114 115 116 116 117 117 116 115 115 114 112 110 108 105 102 100 98 96 93 91 90 88 88 88 87 87 87 86 88 90 91 92 92 91 88 87 87 88 89 91 93 95 96 97 99 100 101 101 101 102 103 104 105
117 116 115 115 114 114 114 114 114 114 114 113 113 112 112 112 112 112 113 113 113 113 113 113 114 114 114 115 115 116 116 117 118 118 119 119 119 119 118 116 115 113 111 108 105 102 99 97 95 92 90 88 87 87 86 87 87 86 87 88 90 91 93 93 93 91 89 89 90 91 92 93 96 97 98 101 103 103 104 104 105 104 104 104 106
122 121 120 119 119 118 118 118 118 118 118 117 117 116 116 116 116 116 116 116 116 116 116 117 117 118 119 119 119 119 120 120 121 121 121 121 121 120 118 116 115 112 109 106 103 100 98 95 93 90 88 86 86 86 85 85 86 87 88 89 91 93 94 95 94 92 90 90 91 93 94 96 98 100 102 104 105 106 106 106 106 105 105 106 107
126 125 124 124 123 122 122 121 121 121 121 121 120 120 120 120 120 120 120 120 120 120 120 121 122 122 122 122 123 123 123 123 123 124 123 123 122 120 118 116 114 112 109 106 102 99 96 94 91 89 88 87 86 85 84 85 86 87 89 90 91 94 95 94 93 92 91 93 95 96 98 100 102 104 105 106 105 106 106 106 106 106 107 109 108
131 130 129 128 127 127 126 125 125 125 125 124 124 123 123 123 124 124 124 124 124 124 124 125 125 125 126 125 125 125 125 125 125 125 124 123 122 121 119 117 115 112 109 106 103 101 98 95 93 91 90 88 86 84 84 84 86 87 87 88 90 92 94 94 95 95 96 98 99 100 102 103 103 104 105 105 105 106 108 108 109 110 111 110 107
135 134 133 133 132 131 130 129 128 128 128 128 127 127 126 127 127 127 127 127 127 127 127 127 128 128 128 128 127 126 126 126 126 126 125 124 123 122 121 119 117 114 111 107 104 102 100 98 96 95 93 91 89 88 88 88 89 89 90 90 91 92 93 95 96 98 99 99 100 101 103 104 104 106 108 109 110 110 111 111 111 111 110 108 103
137 137 137 136 136 135 134 132 132 131 131 131 131 131 130 130 131 130 130 130 130 130 130 130 130 129 129 128 127 126 126 126 126 126 126 125 124 123 121 119 117 115 112 109 105 102 100 100 98 97 95 93 92 92 91 91 91 91 91 92 92 92 93 94 96 97 99 100 101 103 105 106 108 112 115 115 115 114 112 110 108 107 106 103 99
139 139 138 138 138 138 137 136 135 134 134 134 134 134 134 134 134 133 132 132 131 131 131 131 130 129 129 128 127 126 126 127 127 127 127 127 125 124 122 120 117 113 111 109 106 104 102 101 100 99 98 97 96 95 93 93 92 92 93 94 94 95 96 97 98 99 99 100 102 103 105 108 112 116 119 119 117 115 111 108 105 103 101 98 94
140 140 140 139 139 139 139 138 138 137 136 135 135 135 135 135 135 134 133 133 132 132 131 131 131 131 130 129 128 126 126 127 128 128 128 127 126 124 123 120 117 114 111 110 109 108 106 105 104 103 102 100 100 99 98 97 97 97 97 97 97 98 98 99 100 100 101 103 106 108 110 112 116 118 118 117 115 112 108 105 102 100 96 93 88
143 143 143 143 143 142 142 141 141 140 139 138 137 137 137 137 137 136 135 135 134 134 134 134 134 133 133 133 132 130 128 127 126 126 126 127 126 125 123 121 119 116 115 113 111 109 108 107 106 106 106 106 106 105 104 103 103 103 103 102 102 101 102 103 104 106 110 113 115 115 116 116 116 115 113 112 110 107 104 101 99 95 91 88 84
145 145 146 146 146 147 146 146 145 145 144 143 142 140 140 139 139 139 139 139 139 139 138 138 137 136 136 136 136 134 132 129 127 126 126 127 127 126 125 123 121 119 118 116 113 110 109 109 109 111 112 113 113 112 111 110 110 110 110 110 109 108 109 110 112 115 119 119 116 114 112 112 111 109 107 106 105 102 99 97 94 91 87 83 80
147 146 146 147 147 148 148 149 149 149 149 149 148 147 146 145 144 144 144 144 144 143 143 142 141 140 139 139 139 138 136 134 131 130 129 129 129 128 127 125 123 123 122 120 116 114 113 114 116 117 118 117 115 115 114 114 114 114 114 114 114 115 116 117 119 120 119 115 111 108 106 105 103 102 102 102 100 98 96 94 91 87 84 81 78
150 149 148 148 149 149 149 150 150 151 151 151 151 151 151 151 150 149 149 149 148 148 147 146 145 144 143 142 141 140 139 137 135 134 133 132 131 130 129 127 126 126 125 123 120 117 116 117 118 119 118 117 116 115 114 113 113 112 113 113 114 115 117 118 118 116 111 107 104 102 99 98 98 98 98 98 96 95 93 90 87 84 81 79 79
153 152 152 151 151 151 152 152 152 152 153 153 153 153 154 154 154 154 153 153 152 151 151 150 149 148 146 145 144 143 141 139 137 136 135 134 133 132 130 129 128 128 127 124 122 120 119 119 118 118 117 116 115 114 112 111 110 108 109 109 110 111 111 111 110 107 104 101 99 96 95 95 96 95 95 94 93 92 90 87 84 81 79 77 77
155 155 154 154 153 154 154 154 154 155 155 154 154 155 155 155 155 155 155 155 155 154 153 152 151 150 148 147 146 144 143 141 139 138 137 136 135 133 131 130 129 128 127 125 122 121 119 118 117 116 115 113 112 110 109 107 105 105 105 105 105 105 104 103 102 101 99 96 94 92 92 93 94 94 92 91 90 90 87 85 82 79 76 74 73
155 155 155 155 155 155 155 156 156 156 156 156 156 156 156 156 156 156 156 156 156 155 155 154 153 151 149 148 146 145 144 143 141 140 138 137 136 135 133 131 129 128 126 124 122 120 118 116 115 114 112 111 109 107 106 104 102 102 102 101 101 100 99 98 97 96 94 92 91 90 90 92 92 92 90 88 88 87 85 82 79 75 71 69 69
154 155 155 155 155 155 155 156 156 156 157 157 157 157 156 157 157 157 157 156 156 155 154 154 153 152 150 149 148 147 146 144 143 141 140 138 137 135 133 131 129 127 125 122 120 118 116 114 113 111 110 108 107 105 103 102 101 100 100 99 98 97 95 93 92 91 90 89 88 88 89 90 90 89 87 86 85 84 81 78 74 70 67 67 69
152 153 153 153 153 154 154 154 155 155 156 156 156 156 156 156 156 156 156 156 156 155 154 153 152 151 150 149 148 147 146 145 143 142 140 138 136 134 132 130 128 125 123 121 119 117 115 113 111 109 108 106 105 103 102 100 99 98 97 96 95 93 91 89 88 88 87 87 86 86 86 86 86 85 85 85 83 80 77 73 70 68 67 69 71
146 148 149 150 150 151 151 152 153 154 154 154 154 155 155 155 155 155 155 155 155 154 153 153 152 150 149 148 146 145 144 142 141 139 138 136 134 132 131 129 127 124 122 120 119 117 115 113 111 109 107 105 104 102 101 99 96 94 92 91 89 87 85 84 84 85 84 83 82 82 82 82 82 83 83 82 79 76 73 70 68 68 69 71 74
140 142 144 145 145 146 147 147 148 149 150 151 151 151 152 152 152 152 152 152 152 152 151 150 149 148 147 145 143 141 139 138 137 136 135 133 132 131 129 128 126 124 122 120 118 117 115 113 111 108 106 103 100 98 96 93 90 87 85 84 82 81 81 80 80 81 80 78 77 78 80 80 81 82 81 80 77 75 72 70 70 70 72 74 77
136 138 139 141 142 142 143 143 143 144 145 145 146 146 146 146 147 147 147 147 147 146 146 145 145 144 143 141 139 137 135 134 133 133 132 131 131 130 128 127 126 124 122 120 118 116 114 112 109 106 102 98 94 90 87 85 83 83 82 80 78 78 78 78 78 77 75 74 75 77 79 80 80 81 80 78 76 75 73 72 72 73 74 77 79
133 134 136 137 138 139 140 140 140 140 140 141 141 141 142 141 141 141 141 141 142 141 141 141 141 140 140 139 138 136 134 132 131 130 129 129 129 129 128 127 126 124 123 121 118 115 113 111 107 103 100 96 92 87 82 79 79 80 82 82 80 78 76 76 75 73 73 74 76 78 80 80 80 81 80 78 77 76 75 74 74 75 77 79 80
128 130 132 133 135 136 137 137 138 138 138 138 138 138 138 138 138 138 137 137 137 138 138 138 138 138 137 137 136 135 133 132 131 129 128 127 127 127 126 125 124 123 122 120 117 114 111 108 105 102 98 95 91 87 84 82 81 82 83 84 82 79 77 75 74 74 76 77 78 79 81 81 81 81 80 79 78 79 78 77 78 78 79 80 82
121 122 125 127 128 130 131 132 133 134 134 134 135 135 135 135 135 135 134 134 134 134 134 134 134 135 134 134 133 132 131 130 129 127 126 125 124 123 122 121 120 119 118 116 114 112 109 106 103 100 96 93 89 87 85 84 84 85 85 84 83 81 80 77 76 76 77 79 79 81 82 82 82 82 82 81 81 81 81 81 81 82 82 83 84
112 114 116 118 120 122 123 124 125 126 127 128 129 129 130 129 129 129 129 129 128 128 127 128 128 128 128 128 127 126 126 125 124 123 122 120 119 118 117 116 115 114 113 112 110 108 106 104 102 99 95 92 90 88 85 84 83 84 84 84 83 82 81 79 78 78 79 79 80 81 82 81 82 83 83 82 82 82 83 83 84 84 86 87 87
105 106 107 109 111 112 114 115 116 117 118 119 120 121 122 122 121 121 120 120 120 119 119 119 119 119 119 119 119 119 119 118 117 117 116 115 114 113 111 110 109 108 108 107 105 104 103 101 99 97 95 93 91 89 87 85 83 83 84 85 84 83 82 80 79 79 81 82 82 82 82 82 84 85 85 84 84 84 85 86 86 87 89 90 91
100 101 102 103 104 105 106 107 108 109 109 110 111 112 113 113 114 113 112 111 110 110 110 110 111 110 110 111 112 112 112 111 111 111 110 110 109 108 107 105 105 104 104 103 102 101 100 98 97 96 95 93 91 89 87 86 85 85 85 86 86 85 84 82 81 81 82 84 85 85 84 85 86 86 85 85 85 86 87 88 88 90 91 93 94
97 97 97 98 99 100 101 102 103 104 104 105 106 106 107 107 108 107 106 106 104 103 102 103 103 103 103 104 105 106 106 106 106 106 105 105 105 104 103 101 101 100 100 99 99 99 98 96 95 95 94 93 91 89 88 87 86 85 86 87 88 87 86 85 84 84 85 85 86 87 87 87 86 85 85 86 86 87 87 88 90 92 93 95 96
95 95 96 96 97 97 98 98 99 100 101 102 103 103 104 104 104 104 103 103 102 100 99 99 99 99 99 100 101 102 102 102 102 102 102 102 101 100 99 98 97 96 96 95 96 96 95 95 94 93 93 92 91 90 89 88 87 85 85 86 88 88 88 87 87 88 88 88 89 90 90 89 87 86 85 86 86 86 88 90 92 93 95 97 98
96 96 97 97 98 98 98 99 99 100 100 101 102 103 103 103 103 103 103 103 103 102 100 99 99 99 99 100 101 101 101 101 101 101 101 101 100 99 98 96 94 93 92 92 93 92 93 93 93 92 92 91 91 91 90 89 87 86 85 86 88 89 88 87 88 89 90 91 92 93 92 90 88 86 85 85 86 87 89 91 93 94 96 99 101
99 100 100 101 101 101 102 102 102 102 103 103 104 104 105 105 105 105 105 105 105 105 104 103 102 101 101 102 102 103 103 103 103 103 102 102 101 100 99 98 96 93 92 91 91 91 91 91 91 91 91 91 91 91 90 89 87 86 86 86 88 89 88 88 88 89 91 92 93 93 92 90 87 85 84 85 87 89 91 92 94 95 98 101 103
103 103 104 104 105 105 105 105 105 106 106 106 106 107 107 107 107 107 107 107 107 107 107 106 105 105 105 105 105 106 106 105 105 105 105 104 104 103 102 101 99 97 94 92 92 91 91 90 90 90 90 90 90 90 90 88 87 86 86 86 88 89 90 90 90 90 91 92 93 92 91 89 86 84 84 86 88 91 92 94 95 97 99 102 104
104 105 105 106 107 107 107 108 108 108 108 108 108 109 109 109 109 109 109 109 109 109 109 109 108 108 108 108 108 108 108 108 108 108 108 107 107 107 105 104 102 100 98 95 94 93 92 91 90 89 90 90 90 91 90 90 89 88 88 88 88 89 90 91 91 91 91 92 92 92 91 89 86 85 85 88 90 92 94 95 96 99 101 103 105
104 104 105 106 106 107 107 108 108 108 108 109 109 109 110 110 110 110 110 110 109 109 109 109 109 109 109 109 109 110 110 110 110 110 110 110 110 110 109 108 106 104 102 100 98 96 95 93 92 90 90 90 90 91 91 91 90 90 89 89 89 90 90 91 91 91 92 93 93 93 92 91 89 88 88 90 92 94 95 96 98 101 103 104 106
102 103 103 104 104 104 105 105 105 106 106 106 106 107 107 107 107 107 107 107 107 107 107 106 106 107 108 108 108 109 109 109 109 110 110 111 111 111 110 110 108 106 105 103 101 100 98 97 95 93 91 90 90 91 91 91 90 90 90 90 90 91 91 91 91 91 92 93 94 94 93 92 90 90 91 93 94 95 97 98 100 102 104 106 107
100 100 100 100 100 100 100 100 100 101 101 101 101 101 102 102 101 101 101 101 101 102 102 102 102 103 103 104 105 106 107 107 107 108 108 109 109 110 110 110 109 108 106 105 104 103 102 100 98 96 94 92 91 91 91 91 91 90 90 91 91 91 92 92 92 92 92 93 94 94 94 92 92 92 93 95 96 97 99 100 101 103 105 107 108
96 96 96 95 95 95 96 96 96 96 96 97 97 97 97 97 97 97 97 97 97 97 98 98 98 99 99 100 101 102 103 104 104 105 106 106 106 107 108 109 109 108 106 105 104 103 103 103 102 100 98 95 94 92 92 91 91 91 91 91 92 93 93 93 93 94 94 94 95 96 97 95 94 94 95 96 98 99 100 101 102 104 106 108 108
92 92 92 92 93 93 93 94 94 95 95 95 95 95 95 96 96 96 96 96 97 97 97 98 98 98 98 98 98 98 99 100 101 102 103 103 104 105 106 107 108 107 106 105 104 103 102 102 103 103 101 99 97 95 94 93 92 92 92 92 92 93 94 95 95 96 96 97 98 99 100 99 98 97 97 97 98 99 101 102 104 105 107 108 108
88 88 89 89 90 90 91 91 92 92 93 93 94 94 94 94 95 95 95 95 95 96 96 96 96 96 96 96 96 96 97 97 98 98 99 100 101 103 104 105 106 106 106 106 105 103 102 101 102 103 103 102 100 98 97 95 94 93 93 93 93 94 95 96 97 97 97 98 99 101 102 102 102 102 101 101 100 101 102 103 104 106 107 107 107
88 89 89 88 88 88 89 89 89 90 90 90 91 91 91 92 92 92 92 93 93 93 93 93 93 93 93 93 93 93 93 94 94 94 95 96 97 99 100 101 102 103 104 104 104 104 102 101 100 102 103 104 103 101 99 98 97 95 95 94 95 95 96 97 98 99 99 100 101 102 103 104 105 105 105 105 104 104 104 104 105 105 106 107 107
90 90 90 90 90 90 90 90 90 90 90 89 89 89 89 89 89 90 90 90 90 91 91 91 90 90 90 90 90 91 91 91 91 92 92 94 95 96 96 97 97 98 99 100 101 102 102 100 98 99 101 103 104 103 102 100 99 98 97 97 97 97 98 99 99 100 101 102 103 104 105 106 107 107 107 107 107 106 105 105 105 106 107 107 109
88 88 88 89 90 90 90 90 90 91 91 91 90 90 90 89 89 89 89 89 88 88 88 88 88 88 88 88 88 88 88 89 89 90 90 92 93 93 94 95 95 95 96 96 97 98 99 97 95 94 96 100 103 103 103 102 101 100 99 98 98 99 99 100 101 102 103 104 104 105 106 106 107 107 107 107 107 106 106 106 106 107 108 109 110
83 83 84 84 84 85 86 86 87 88 89 89 90 90 90 90 90 89 89 88 88 87 87 87 87 87 87 87 86 86 87 87 88 88 89 90 91 91 92 93 93 93 93 93 93 94 95 94 91 88 89 94 99 102 103 103 103 102 101 100 100 99 100 100 101 102 103 103 104 104 105 105 106 106 106 106 106 106 107 107 107 108 109 110 111
Wind_Direction
263 263 264 264 264 265 265 266 267 268 269 270 271 272 273 274 275 276 277 279 279 280 281 282 283 284 285 286 287 288 289 290 291 291 292 293 293 294 294 295 296 297 297 298 299 300 300 301 301 301 301 301 302 301 300 299 299 299 300 300 301 300 298 296 298 299 299 299 301 303 305 306 307 309 309 310 310 310 309 309 310 311 313 315 316
263 264 264 264 264 265 265 266 267 268 269 270 271 272 273 274 275 276 277 278 279 280 281 282 283 284 284 285 286 287 288 289 289 290 291 292 292 293 293 294 295 296 296 297 298 299 299 300 300 300 300 300 300 299 299 298 298 299 299 298 298 296 295 296 298 298 298 300 302 303 304 306 308 308 308 308 307 307 308 308 310 311 312 314 314
263 264 264 264 265 265 265 266 267 267 268 269 270 271 272 273 274 275 276 277 279 279 280 281 282 283 284 285 285 286 287 288 288 289 290 290 291 291 292 293 294 294 295 296 297 297 298 299 299 299 299 299 299 298 297 296 296 296 295 295 295 294 294 296 297 297 298 301 302 303 305 307 308 307 306 305 305 305 306 308 309 310 311 312 313
263 264 264 264 265 265 266 266 267 267 268 269 270 271 272 273 274 275 276 277 278 279 280 281 282 283 284 285 285 286 287 287 288 288 289 290 290 291 291 292 293 293 294 295 296 297 297 298 298 298 298 298 297 296 295 294 293 292 292 293 292 293 295 296 296 297 299 301 302 304 306 306 306 304 302 301 302 304 305 306 307 309 310 311 311
263 264 264 264 265 265 266 266 266 267 268 269 270 271 272 273 274 275 276 277 278 278 279 280 281 282 283 284 285 286 287 287 288 288 289 289 290 290 291 291 292 293 294 294 295 296 297 297 298 298 297 297 295 294 293 293 292 292 292 292 292 294 296 296 296 297 299 301 302 304 304 304 302 301 299 299 301 303 304 305 306 308 309 309 310
264 264 264 265 265 265 266 266 266 267 268 268 269 270 271 272 273 274 275 276 277 278 279 280 281 282 283 284 284 285 286 287 287 288 288 289 289 290 290 291 292 292 293 294 295 296 296 297 297 297 297 296 295 294 293 293 292 292 292 292 294 295 294 294 295 297 298 300 301 302 302 301 300 299 298 299 301 302 303 304 305 306 307 308 309
265 265 265 265 266 266 266 267 267 267 268 268 269 270 271 272 273 274 275 276 277 277 278 279 280 281 282 282 283 284 285 286 286 287 287 288 288 289 290 290 291 292 293 294 294 295 296 297 297 296 296 295 294 294 293 292 292 292 292 293 293 293 292 293 294 296 298 299 300 300 300 299 297 297 297 298 299 300 302 304 305 305 306 307 308
265 266 266 266 266 267 267 268 268 269 269 269 270 271 271 272 273 274 275 276 277 277 278 279 279 280 281 282 282 283 284 285 285 285 286 287 287 288 289 290 291 292 293 294 295 295 296 296 296 295 295 294 294 293 293 293 293 293 292 292 291 291 292 293 294 296 297 299 299 299 298 297 296 296 296 297 298 300 301 302 304 305 306 307 308
266 266 266 266 267 267 268 268 269 269 270 270 271 272 272 273 274 274 275 276 276 277 278 278 279 280 281 281 282 283 283 284 284 285 285 286 287 288 289 290 291 292 293 294 294 295 295 295 295 295 295 294 294 294 295 294 294 293 292 291 290 291 292 293 294 295 296 297 297 296 296 295 295 295 296 296 297 299 300 301 302 304 305 306 307
266 266 266 267 267 267 268 269 269 270 270 271 271 272 273 273 274 274 275 275 276 277 278 278 279 280 280 281 282 282 283 283 283 284 285 286 286 287 288 289 291 292 292 293 294 294 295 295 295 295 295 295 295 295 295 295 294 292 291 290 290 291 292 293 294 294 295 295 295 294 294 293 293 294 295 296 297 299 300 301 302 302 304 306 306
266 266 267 267 267 267 268 268 269 270 271 271 272 272 273 274 274 275 275 276 276 277 278 278 279 280 280 281 281 282 282 283 283 284 285 285 286 287 288 289 290 291 292 293 294 295 295 295 295 295 294 294 295 295 295 293 292 290 290 290 290 291 291 292 293 293 293 292 291 292 292 292 293 294 295 296 298 299 300 300 301 302 303 304 305
266 266 266 266 267 267 268 268 269 269 270 271 271 272 273 274 274 275 275 276 277 277 278 278 279 279 280 281 281 282 282 283 284 284 285 286 287 288 289 290 291 292 293 294 295 295 295 294 294 293 294 294 295 295 294 292 291 291 291 291 292 291 292 292 292 291 290 290 290 291 292 293 294 295 296 297 299 300 300 300 300 301 302 303 303
266 266 266 267 267 267 267 268 268 269 270 270 271 271 272 273 274 274 275 276 276 277 278 278 279 279 280 280 281 282 283 283 284 285 286 286 287 288 289 291 292 293 294 295 296 296 295 294 294 294 294 294 294 293 292 291 291 291 292 292 292 291 291 291 291 290 290 291 291 293 294 295 296 297 297 299 300 301 301 300 299 300 301 302 302
266 267 267 268 268 268 268 268 269 269 270 270 271 271 272 272 273 273 274 275 275 276 276 277 278 278 279 280 281 282 282 283 284 285 285 286 288 289 290 292 293 294 295 295 296 295 295 294 294 294 294 293 293 293 292 291 291 291 292 292 292 291 291 291 291 291 291 292 293 294 295 295 296 297 298 300 301 302 301 300 299 299 300 300 300
266 267 267 268 268 268 268 269 269 269 269 270 270 271 271 271 271 272 272 273 274 274 275 275 276 277 278 279 280 281 282 283 283 285 286 287 289 290 292 293 294 294 294 295 295 294 293 293 293 293 293 293 293 292 291 290 290 290 290 291 291 291 291 292 292 292 292 293 293 293 294 294 295 297 299 300 302 302 301 300 299 299 299 299 299
266 266 267 267 268 268 268 269 269 269 269 270 270 271 271 271 271 272 272 272 273 273 274 274 275 275 276 278 279 280 282 283 285 286 288 289 290 291 292 293 293 293 293 293 293 292 291 291 291 291 292 292 292 291 291 290 290 289 289 289 290 290 291 292 292 292 293 293 292 292 292 293 295 297 299 300 300 301 300 299 299 299 298 298 298
269 269 269 268 268 268 268 268 268 268 268 269 269 270 270 271 271 272 272 273 273 273 274 275 276 276 277 278 279 281 283 285 287 288 289 289 290 290 291 291 291 291 290 290 290 290 290 289 289 290 290 290 290 290 291 291 290 290 290 290 290 291 291 291 292 292 294 294 293 293 293 294 296 297 298 298 299 299 299 298 298 298 298 297 297
272 272 273 273 272 272 271 271 271 271 270 270 270 270 271 271 272 272 273 273 274 275 276 277 279 280 281 281 282 283 284 285 286 287 287 288 288 288 289 289 289 289 288 288 289 289 288 288 288 288 288 289 289 289 289 289 289 290 289 290 290 291 291 291 291 293 294 295 294 293 293 294 295 296 297 297 298 298 298 298 298 298 297 297 297
271 272 273 274 274 275 275 275 275 275 275 275 274 274 274 275 275 275 276 276 277 278 279 280 281 282 282 283 283 284 284 284 284 284 285 285 286 286 287 287 287 287 287 287 287 288 287 286 286 286 287 288 288 288 288 288 289 289 289 289 289 289 289 289 290 292 293 294 294 293 294 294 295 296 296 296 297 297 297 297 297 297 297 297 297
269 269 270 271 272 273 274 275 276 276 277 277 277 277 277 277 278 278 278 279 279 280 280 281 281 281 281 282 282 283 283 283 283 283 283 284 284 285 286 286 286 286 286 286 286 286 285 285 285 286 286 287 287 287 287 287 288 288 288 288 287 287 287 288 289 290 292 292 293 293 294 294 294 295 295 295 296 296 296 296 297 297 298 298 297
268 268 268 268 269 270 271 272 273 274 275 276 276 277 278 278 278 278 279 279 279 280 280 280 280 280 281 281 281 281 282 282 283 283 283 284 284 284 285 285 285 285 285 285 285 285 284 283 284 285 285 286 286 286 287 286 286 286 286 286 286 286 286 287 288 289 290 291 292 293 293 293 293 294 294 294 295 295 295 296 297 298 297 296 295
267 268 268 268 268 269 269 270 270 271 272 273 273 274 275 276 277 277 277 278 278 279 279 279 280 280 280 281 281 281 282 282 283 283 283 283 284 284 284 284 284 284 284 284 284 284 284 283 284 284 284 285 285 285 286 286 286 286 285 285 285 285 286 286 287 288 289 290 291 292 292 292 292 292 292 293 293 293 295 296 297 297 296 295 294
266 267 267 268 268 269 269 269 270 270 271 271 272 272 273 274 275 275 276 277 277 278 278 278 279 279 280 280 281 281 282 282 283 283 283 283 283 283 284 283 283 283 283 283 284 284 283 283 283 284 284 284 284 284 284 285 285 285 285 284 285 285 285 286 286 287 287 288 289 290 290 290 290 291 291 291 291 293 294 296 297 297 296 294 293
265 266 266 267 267 268 268 269 270 270 271 271 271 272 272 273 274 274 275 276 276 277 278 278 279 279 280 280 281 281 282 282 282 283 283 283 283 283 283 282 282 282 282 283 283 283 283 283 283 283 283 283 283 283 284 284 284 284 284 284 284 284 284 285 285 285 286 287 288 289 289 289 289 289 289 290 291 292 294 296 296 296 294 293 293
265 265 266 266 266 267 267 268 268 269 270 270 271 271 272 272 273 274 274 275 275 276 277 278 278 279 280 280 281 281 282 282 282 282 282 282 282 282 282 282 282 282 282 282 282 282 282 282 282 283 283 283 283 283 283 283 283 283 283 283 283 283 283 283 283 284 285 286 287 287 287 287 287 288 288 289 290 292 294 295 294 292 292 293 294
264 264 265 265 265 266 266 266 267 268 268 269 269 270 271 271 272 273 273 274 275 275 276 276 277 278 278 279 280 280 281 281 281 281 281 281 281 281 281 281 281 282 282 282 282 282 282 282 282 282 282 282 282 282 282 282 283 283 282 282 282 282 282 282 282 283 284 284 285 285 285 285 286 287 288 289 291 293 294 293 291 291 292 293 294
263 263 264 264 264 264 265 265 265 266 267 267 268 268 269 270 270 271 272 273 274 274 275 275 276 276 277 277 278 278 278 279 279 280 280 280 280 280 281 281 281 281 281 281 281 281 281 281 281 282 282 282 282 282 282 283 283 283 282 282 282 281 281 281 281 282 282 283 284 284 284 285 286 287 288 289 292 293 293 291 290 291 293 294 293
262 262 263 263 263 264 264 264 264 265 265 266 266 267 267 268 269 270 270 271 272 273 273 274 275 275 275 275 276 276 276 277 277 278 278 279 279 279 279 280 280 280 280 280 280 280 280 281 281 281 281 282 282 282 282 283 283 282 282 282 281 281 281 281 281 281 281 282 282 283 284 285 287 288 289 290 292 293 292 290 290 292 293 293 292
262 262 262 263 263 263 264 264 264 264 265 265 266 266 267 267 268 268 269 270 271 271 272 273 273 274 274 275 275 275 275 275 276 276 277 277 278 278 278 278 278 278 278 278 278 278 279 279 280 280 280 280 279 279 279 280 281 281 281 281 281 281 281 281 280 280 280 280 281 283 284 286 288 288 289 291 293 293 292 290 291 293 293 292 291
262 262 262 263 263 264 264 264 264 265 265 265 266 266 267 267 268 268 269 270 270 271 271 272 273 273 274 274 274 275 275 275 275 275 275 275 276 276 277 277 277 277 277 277 277 277 277 277 277 277 276 276 275 274 274 274 274 275 277 278 278 279 279 280 280 280 280 280 282 283 285 286 286 287 289 291 292 292 292 291 291 292 292 290 290
262 262 262 263 263 263 264 264 265 265 265 266 266 266 267 268 268 268 269 269 270 271 271 272 273 273 274 274 274 275 275 275 274 274 274 274 274 274 275 275 275 276 276 276 276 276 276 276 275 274 274 273 273 272 270 269 268 269 271 273 275 276 277 278 279 280 280 281 282 283 284 284 285 286 288 290 291 292 292 292 291 291 290 290 289
262 262 262 262 263 263 263 264 265 265 266 266 266 267 267 268 268 269 269 269 270 270 271 272 272 273 273 273 274 274 274 274 274 274 273 273 273 273 273 273 274 274 274 275 275 275 274 274 273 273 272 271 270 269 268 266 266 267 268 270 272 273 275 276 278 279 281 281 281 282 283 283 283 285 287 289 290 291 292 292 291 291 290 290 290
262 262 262 263 263 263 264 264 264 265 265 266 266 267 267 267 268 268 269 270 270 270 270 270 271 271 272 272 272 273 273 273 273 273 273 273 272 272 272 272 273 273 273 273 273 273 272 272 271 271 270 269 268 267 266 265 264 264 265 267 268 270 272 273 275 277 278 279 279 281 282 282 283 285 286 289 290 291 291 291 291 291 291 290 290
264 263 263 263 264 264 264 265 265 265 265 266 266 267 267 267 267 267 268 268 269 269 269 269 270 270 271 271 271 272 272 272 272 272 272 272 272 272 272 272 272 272 272 272 272 271 271 270 270 269 268 267 266 265 265 264 263 262 262 263 264 266 268 270 271 273 275 276 277 278 279 280 282 284 286 288 289 289 289 289 290 290 290 290 290
264 264 264 264 264 264 265 265 266 266 266 266 266 267 267 267 267 267 267 267 268 269 269 270 270 270 270 271 271 271 271 272 272 272 272 272 272 272 272 272 271 271 271 271 271 270 270 269 268 267 266 265 264 264 263 262 262 261 260 260 261 262 264 266 268 269 271 273 275 276 277 279 280 282 285 286 286 286 287 288 289 290 290 290 290
266 265 265 265 265 265 265 265 266 266 266 266 266 266 267 267 267 267 267 267 267 267 268 269 270 270 270 271 271 271 271 272 272 272 272 272 272 272 272 271 271 271 271 270 270 269 269 268 267 266 265 264 263 262 261 261 260 260 260 259 259 259 260 262 264 266 268 271 273 274 275 277 279 281 282 283 283 284 285 286 288 289 289 289 290
267 267 266 266 266 266 266 265 265 265 266 266 266 266 267 267 267 268 268 268 268 268 268 268 268 269 269 269 270 270 270 271 271 271 271 271 271 271 271 271 270 270 270 269 269 268 268 267 267 266 264 263 261 260 259 259 259 258 258 259 259 259 259 260 262 264 266 268 269 271 273 275 277 278 280 281 281 282 283 285 286 288 288 289 290
267 267 266 266 266 266 265 265 265 265 265 265 265 266 266 267 267 268 268 268 269 268 268 268 268 268 268 268 268 268 269 269 269 269 270 270 270 270 270 270 269 269 269 268 268 267 267 266 266 265 264 262 261 259 259 258 258 257 257 257 258 258 258 259 261 262 263 265 266 267 270 273 275 277 279 279 279 280 282 284 285 286 286 287 289
267 267 266 266 266 265 265 265 265 265 265 265 265 266 266 266 267 267 268 268 268 269 269 268 268 268 267 267 267 267 267 267 267 268 268 268 268 268 268 268 268 267 267 267 267 266 266 265 265 264 263 262 261 260 259 259 258 257 256 256 256 257 258 259 260 261 261 262 263 265 268 271 273 276 277 278 278 279 280 282 283 284 284 285 287
268 268 268 268 267 267 267 267 266 266 266 266 266 266 267 267 267 267 268 268 268 269 269 268 268 268 267 267 267 267 267 266 266 267 267 267 267 266 266 266 266 266 265 265 265 265 265 264 264 263 262 262 261 260 259 258 258 257 256 255 255 255 256 257 258 259 260 260 261 263 266 269 271 274 276 276 276 277 279 280 281 282 282 283 285
269 269 269 269 269 269 269 269 268 268 268 268 268 268 268 268 267 267 267 268 268 268 268 268 268 268 268 267 267 267 267 266 266 266 266 266 266 265 265 265 265 265 264 264 263 263 264 264 263 262 261 261 260 259 258 257 257 256 256 255 255 255 255 256 257 258 258 259 260 262 264 267 270 272 274 275 275 276 277 278 279 280 281 282 284
270 270 270 270 269 269 269 269 269 269 269 269 268 268 268 268 268 268 268 268 268 268 268 268 268 268 268 268 268 267 267 267 267 267 266 266 265 265 265 264 264 263 263 263 263 262 262 262 262 262 261 260 259 259 259 258 257 257 256 256 255 255 255 256 257 258 258 259 260 262 263 266 269 271 273 273 274 275 276 276 277 278 279 281 283
271 271 271 270 270 270 270 270 270 270 270 270 270 270 270 270 270 270 270 270 269 269 269 269 269 269 268 268 268 268 267 267 267 267 267 266 266 266 265 264 264 263 262 262 261 261 261 260 260 260 260 260 259 259 258 258 258 257 256 256 255 255 255 256 257 258 259 259 261 262 263 266 268 270 271 272 273 274 274 275 276 277 278 280 282
272 272 272 272 272 272 272 272 272 272 271 271 271 271 271 271 270 270 270 269 269 269 269 268 268 268 268 268 268 267 267 267 267 266 266 266 266 266 266 265 264 263 262 261 260 260 259 259 259 259 259 259 258 258 258 258 258 257 256 256 255 255 255 255 256 257 258 259 260 262 263 265 267 268 270 271 271 272 273 274 275 276 278 280 282
273 273 273 273 273 272 272 272 272 271 271 270 270 270 269 269 269 269 269 269 268 268 268 267 267 266 266 266 266 266 266 266 266 266 265 265 265 265 266 265 265 264 262 261 259 258 258 258 258 257 257 257 257 257 257 257 257 256 256 255 255 254 254 254 255 256 257 258 259 260 262 264 265 267 268 269 270 272 273 274 275 276 278 279 282
273 274 274 274 274 273 273 273 272 272 271 271 270 270 269 269 268 268 268 268 268 267 267 267 267 267 266 266 265 265 265 264 264 264 264 264 264 264 264 264 264 264 263 262 260 258 257 256 256 256 256 255 255 255 255 255 255 255 255 255 254 254 254 254 254 255 256 257 258 259 261 262 264 265 266 268 270 271 273 274 275 277 278 280 281
276 275 275 274 273 272 272 272 271 271 271 271 270 270 270 270 269 269 269 269 268 268 268 268 268 268 268 268 268 267 267 266 266 265 265 264 264 264 263 263 264 264 263 263 262 259 257 255 254 254 254 254 253 253 253 254 254 254 254 254 254 254 254 254 254 254 255 256 257 258 260 261 263 264 266 267 269 270 272 273 275 276 277 279 280
277 276 275 274 273 273 272 272 271 271 270 270 270 270 270 270 270 269 269 269 269 269 269 269 269 269 269 269 269 268 268 267 267 266 266 265 264 264 264 263 263 264 264 264 263 262 260 257 254 253 253 253 252 252 252 252 252 252 253 253 253 253 253 253 254 254 255 256 257 258 259 260 262 264 265 266 268 269 271 272 274 275 276 277 278
275 275 275 275 275 274 274 273 273 273 272 272 271 271 270 270 270 269 269 269 269 269 269 269 269 269 268 268 268 267 267 267 266 265 265 264 264 263 263 263 263 263 263 263 263 264 263 261 258 254 252 252 251 251 250 250 251 251 251 251 252 252 253 253 253 253 254 255 256 257 258 260 261 263 264 265 266 268 270 272 273 274 275 276 277
274 274 274 273 273 273 273 273 273 273 273 273 273 272 272 272 271 271 270 270 270 269 269 269 269 268 268 267 267 266 266 266 265 265 265 264 264 263 263 262 262 262 262 262 262 263 263 263 262 258 255 253 252 251 250 250 250 250 250 250 251 251 252 253 253 253 254 255 256 257 258 259 261 263 264 265 266 268 269 271 272 273 274 275 277
275 274 274 273 273 272 272 272 272 272 272 272 272 272 272 271 271 271 271 270 270 270 269 269 269 268 268 267 267 266 265 265 265 264 264 264 264 264 263 263 263 262 262 262 262 262 262 263 262 261 258 256 253 252 250 249 249 249 249 249 249 250 251 252 252 253 254 255 256 257 258 259 261 262 264 265 266 268 269 270 271 272 274 275 276
Height
10729 10730 10731 10732 10733 10732 10732 10731 10730 10730 10729 10729 10729 10728 10728 10728 10729 10730 10730 10729 10727 10727 10726 10724 10723 10721 10719 10718 10715 10714 10712 10709 10708 10707 10707 10706 10704 10701 10697 10693 10691 10688 10686 10684 10679 10675 10673 10671 10668 10663 10657 10655 10654 10652 10648 10642 10639 10637 10635 10633 10630 10627 10623 10620 10620 10619 10614 10609 10606 10603 10599 10594 10588 10580 10574 10570 10566 10563 10561 10558 10554 10549 10543 10538 10531
10719 10720 10721 10722 10722 10722 10722 10721 10720 10720 10720 10719 10718 10718 10718 10719 10720 10721 10721 10719 10717 10717 10716 10714 10713 10711 10710 10709 10706 10704 10703 10701 10699 10697 10697 10696 10694 10692 10688 10684 10682 10679 10676 10674 10671 10667 10665 10663 10659 10654 10649 10646 10645 10642 10638 10634 10630 10628 10626 10623 10621 10618 10613 10611 10611 10608 10604 10601 10598 10595 10591 10587 10582 10575 10568 10564 10560 10557 10553 10549 10546 10541 10537 10531 10525
10709 10710 10711 10711 10712 10712 10711 10711 10710 10710 10710 10709 10709 10708 10709 10709 10710 10711 10710 10709 10708 10707 10705 10704 10702 10701 10699 10698 10696 10695 10693 10691 10689 10688 10687 10686 10684 10682 10679 10676 10673 10670 10668 10665 10662 10659 10657 10654 10651 10646 10641 10638 10636 10632 10629 10625 10622 10620 10617 10614 10612 10608 10603 10602 10601 10597 10596 10594 10590 10586 10583 10579 10575 10569 10563 10558 10554 10550 10547 10542 10537 10533 10528 10523 10518
10699 10700 10700 10700 10701 10701 10701 10700 10700 10700 10700 10699 10699 10698 10699 10699 10699 10700 10699 10698 10697 10696 10695 10694 10692 10691 10689 10687 10685 10684 10682 10680 10678 10677 10676 10674 10673 10670 10668 10666 10664 10661 10659 10656 10653 10650 10648 10645 10641 10636 10633 10630 10627 10623 10619 10616 10613 10611 10609 10605 10602 10598 10595 10593 10590 10587 10587 10585 10581 10578 10575 10571 10567 10562 10556 10551 10547 10544 10540 10536 10531 10526 10521 10515 10510
10688 10688 10688 10689 10689 10689 10689 10689 10689 10689 10689 10689 10689 10688 10688 10688 10688 10688 10688 10687 10687 10685 10684 10683 10682 10681 10680 10677 10675 10673 10671 10669 10667 10665 10663 10661 10660 10658 10656 10654 10653 10651 10649 10647 10644 10641 10638 10636 10632 10627 10624 10621 10618 10614 10610 10607 10604 10601 10600 10597 10593 10590 10588 10585 10581 10579 10578 10576 10573 10571 10567 10563 10559 10555 10550 10545 10542 10537 10533 10529 10525 10521 10515 10508 10503
10676 10676 10677 10677 10677 10676 10677 10677 10677 10678 10679 10679 10679 10678 10678 10677 10677 10676 10676 10676 10675 10674 10673 10673 10671 10671 10669 10668 10665 10662 10660 10658 10656 10653 10650 10647 10646 10645 10644 10643 10642 10640 10639 10637 10634 10631 10628 10626 10622 10618 10614 10612 10609 10605 10602 10599 10595 10593 10590 10587 10584 10582 10580 10576 10573 10572 10570 10568 10565 10563 10560 10556 10552 10548 10543 10539 10535 10531 10526 10523 10519 10514 10508 10502 10497
10662 10663 10664 10665 10665 10664 10665 10664 10665 10666 10667 10668 10668 10667 10667 10667 10666 10665 10665 10665 10664 10663 10662 10662 10661 10660 10658 10656 10655 10652 10649 10647 10644 10641 10638 10635 10633 10633 10632 10631 10630 10629 10628 10626 10624 10622 10619 10616 10611 10607 10604 10602 10599 10596 10594 10591 10588 10585 10582 10578 10576 10574 10572 10568 10565 10564 10562 10560 10557 10555 10552 10549 10544 10540 10535 10532 10529 10525 10520 10516 10511 10505 10500 10495 10490
10649 10650 10651 10652 10652 10653 10653 10652 10652 10653 10654 10655 10655 10655 10655 10655 10655 10654 10654 10653 10652 10651 10650 10650 10649 10648 10646 10644 10643 10641 10639 10636 10632 10629 10626 10623 10622 10621 10620 10620 10619 10619 10617 10616 10614 10611 10608 10605 10601 10597 10594 10592 10590 10588 10585 10582 10579 10577 10573 10570 10568 10565 10563 10560 10557 10555 10554 10552 10549 10546 10544 10541 10536 10532 10528 10524 10521 10517 10513 10510 10504 10496 10491 10486 10481
10636 10637 10638 10639 10640 10640 10640 10639 10639 10639 10641 10642 10642 10643 10643 10643 10643 10642 10641 10640 10639 10638 10638 10637 10636 10635 10633 10632 10630 10629 10627 10624 10620 10616 10614 10612 10610 10609 10609 10609 10608 10607 10606 10605 10603 10600 10597 10593 10590 10587 10584 10582 10581 10579 10576 10572 10570 10568 10564 10561 10558 10556 10553 10551 10548 10546 10545 10543 10541 10538 10535 10532 10527 10523 10520 10515 10512 10509 10505 10501 10496 10489 10483 10478 10471
10621 10622 10624 10625 10626 10627 10627 10626 10626 10626 10626 10628 10629 10630 10630 10630 10629 10629 10628 10627 10626 10625 10625 10624 10623 10621 10620 10619 10617 10616 10614 10611 10608 10604 10602 10600 10598 10597 10598 10597 10596 10596 10595 10594 10592 10589 10585 10582 10579 10576 10574 10572 10570 10568 10566 10562 10559 10557 10554 10551 10548 10545 10543 10541 10539 10537 10536 10534 10532 10529 10528 10524 10518 10514 10511 10506 10502 10500 10496 10491 10486 10481 10476 10470 10462
10605 10607 10608 10609 10610 10612 10613 10613 10613 10613 10613 10614 10615 10616 10615 10615 10615 10614 10614 10613 10612 10612 10612 10611 10609 10608 10607 10606 10604 10603 10600 10597 10594 10591 10589 10587 10585 10585 10586 10586 10585 10584 10583 10582 10580 10577 10573 10570 10568 10565 10564 10562 10560 10558 10556 10552 10549 10546 10544 10542 10539 10535 10533 10532 10531 10529 10528 10525 10522 10520 10518 10514 10509 10505 10501 10497 10493 10490 10486 10481 10476 10471 10467 10462 10455
10589 10591 10592 10593 10595 10597 10598 10600 10600 10600 10599 10600 10601 10602 10602 10601 10600 10599 10599 10599 10598 10599 10598 10596 10595 10594 10593 10592 10590 10588 10586 10583 10579 10577 10574 10572 10571 10571 10572 10572 10572 10571 10570 10568 10566 10564 10561 10559 10556 10554 10553 10552 10550 10547 10545 10542 10539 10536 10534 10533 10531 10527 10524 10523 10522 10520 10518 10516 10513 10510 10507 10503 10500 10495 10490 10486 10483 10479 10475 10471 10465 10461 10456 10452 10447
10572 10574 10576 10577 10580 10582 10583 10586 10587 10587 10586 10587 10588 10590 10589 10588 10587 10585 10586 10585 10585 10585 10584 10582 10581 10579 10578 10578 10576 10575 10572 10568 10564 10562 10560 10558 10557 10556 10557 10558 10558 10558 10557 10555 10552 10550 10548 10546 10544 10543 10542 10541 10539 10537 10535 10532 10529 10527 10525 10524 10522 10519 10516 10514 10512 10510 10507 10505 10503 10500 10496 10492 10489 10484 10478 10475 10473 10468 10464 10459 10454 10449 10445 10441 10436
10555 10557 10559 10561 10563 10565 10568 10571 10573 10572 10572 10572 10574 10576 10576 10575 10573 10572 10573 10573 10573 10572 10570 10569 10567 10565 10564 10564 10563 10562 10560 10554 10550 10549 10547 10546 10544 10543 10543 10544 10543 10544 10543 10542 10539 10537 10535 10533 10532 10531 10530 10528 10528 10526 10524 10522 10520 10519 10517 10515 10513 10509 10507 10505 10502 10500 10497 10495 10493 10490 10485 10481 10477 10472 10467 10464 10461 10457 10452 10447 10442 10438 10434 10429 10424
10540 10542 10544 10544 10545 10547 10550 10554 10556 10557 10557 10556 10558 10559 10559 10559 10559 10558 10559 10560 10560 10559 10557 10556 10555 10553 10552 10552 10551 10550 10547 10541 10539 10537 10534 10532 10531 10530 10530 10530 10529 10529 10529 10528 10527 10525 10522 10520 10520 10519 10518 10517 10515 10513 10512 10511 10510 10509 10506 10504 10502 10500 10498 10495 10492 10490 10487 10485 10483 10479 10475 10470 10465 10461 10456 10453 10450 10445 10440 10435 10431 10427 10423 10418 10413
10525 10527 10529 10529 10529 10530 10532 10535 10538 10540 10541 10541 10541 10541 10541 10541 10541 10541 10543 10545 10544 10544 10542 10541 10542 10542 10541 10541 10541 10540 10535 10529 10526 10524 10521 10518 10517 10516 10517 10517 10517 10517 10516 10514 10513 10512 10510 10509 10508 10507 10506 10504 10501 10499 10499 10499 10499 10498 10495 10493 10491 10489 10487 10483 10480 10478 10477 10474 10472 10468 10464 10459 10453 10449 10445 10441 10437 10433 10428 10423 10419 10415 10412 10408 10403
10507 10508 10509 10510 10511 10512 10513 10516 10519 10521 10523 10525 10526 10525 10524 10524 10524 10523 10525 10527 10527 10526 10526 10525 10526 10526 10526 10526 10527 10528 10526 10518 10511 10509 10507 10504 10503 10504 10504 10504 10505 10505 10504 10502 10500 10499 10498 10497 10496 10495 10494 10492 10489 10486 10486 10487 10486 10485 10483 10481 10479 10477 10474 10469 10466 10465 10465 10463 10459 10456 10452 10447 10442 10437 10434 10430 10425 10421 10416 10412 10407 10404 10402 10398 10393
10489 10489 10489 10488 10489 10490 10491 10494 10496 10498 10501 10504 10506 10508 10507 10507 10506 10506 10508 10509 10509 10509 10508 10508 10509 10508 10507 10508 10508 10511 10513 10509 10501 10496 10493 10490 10490 10491 10492 10492 10493 10493 10491 10489 10487 10486 10486 10485 10483 10482 10481 10479 10477 10476 10475 10475 10475 10474 10471 10469 10468 10466 10461 10456 10454 10453 10452 10449 10446 10443 10440 10435 10430 10425 10422 10418 10414 10409 10405 10401 10397 10394 10391 10388 10384
10478 10477 10475 10473 10472 10471 10472 10473 10474 10475 10476 10479 10482 10486 10487 10487 10487 10487 10488 10490 10490 10490 10489 10490 10491 10491 10490 10490 10491 10493 10497 10497 10492 10487 10483 10478 10477 10478 10478 10480 10482 10481 10477 10476 10475 10475 10474 10472 10470 10468 10467 10466 10465 10464 10463 10463 10463 10462 10459 10458 10457 10454 10448 10444 10443 10442 10439 10436 10433 10430 10427 10422 10418 10414 10410 10406 10402 10399 10395 10391 10387 10385 10382 10378 10375
10466 10466 10465 10462 10460 10459 10458 10458 10457 10457 10457 10457 10459 10461 10464 10466 10467 10467 10468 10469 10470 10471 10471 10471 10473 10474 10474 10474 10475 10477 10479 10481 10479 10476 10472 10468 10465 10463 10464 10466 10468 10466 10463 10464 10465 10465 10463 10460 10457 10454 10453 10453 10453 10451 10450 10451 10450 10449 10447 10446 10444 10440 10435 10433 10431 10428 10426 10424 10420 10417 10414 10410 10406 10403 10399 10394 10391 10388 10385 10381 10378 10375 10372 10369 10366
10450 10451 10451 10450 10449 10449 10448 10447 10446 10445 10444 10444 10444 10443 10443 10444 10447 10449 10449 10450 10451 10452 10452 10452 10454 10457 10457 10457 10459 10460 10461 10462 10463 10461 10457 10454 10451 10449 10449 10451 10451 10449 10449 10450 10452 10453 10451 10448 10445 10442 10441 10441 10440 10439 10438 10438 10438 10437 10435 10432 10429 10426 10424 10421 10418 10416 10414 10411 10408 10405 10402 10398 10394 10391 10388 10384 10381 10377 10374 10372 10368 10365 10362 10360 10357
10432 10433 10434 10434 10434 10434 10434 10433 10433 10433 10432 10433 10433 10432 10429 10427 10428 10429 10430 10431 10433 10434 10434 10434 10435 10438 10439 10439 10440 10441 10441 10443 10444 10444 10441 10438 10435 10434 10435 10436 10434 10432 10432 10435 10437 10437 10436 10434 10432 10429 10428 10428 10428 10427 10426 10425 10425 10425 10422 10418 10415 10413 10410 10408 10405 10403 10401 10399 10396 10394 10390 10386 10382 10379 10377 10374 10370 10367 10364 10362 10359 10355 10353 10350 10347
10415 10416 10417 10418 10417 10417 10416 10416 10416 10416 10417 10418 10419 10419 10417 10415 10414 10413 10412 10413 10413 10414 10415 10416 10417 10420 10423 10423 10423 10423 10422 10423 10424 10425 10424 10422 10420 10419 10419 10420 10418 10415 10416 10420 10421 10421 10420 10419 10418 10416 10414 10415 10415 10414 10412 10412 10413 10411 10407 10404 10402 10400 10397 10395 10392 10389 10388 10387 10386 10383 10379 10375 10371 10368 10366 10364 10361 10357 10354 10352 10349 10346 10343 10340 10337
10398 10399 10400 10401 10401 10401 10400 10399 10397 10397 10397 10398 10400 10401 10400 10399 10399 10398 10397 10397 10396 10396 10396 10396 10397 10400 10403 10405 10405 10404 10404 10404 10405 10406 10406 10405 10403 10402 10401 10402 10401 10399 10401 10405 10406 10405 10405 10404 10403 10402 10400 10400 10400 10399 10399 10399 10399 10397 10394 10391 10389 10387 10385 10383 10380 10377 10375 10375 10374 10372 10368 10364 10360 10357 10356 10354 10351 10348 10344 10342 10339 10336 10333 10330 10327
10379 10380 10381 10382 10383 10384 10383 10382 10381 10380 10380 10380 10381 10382 10381 10381 10381 10380 10380 10380 10380 10381 10381 10380 10380 10381 10382 10384 10385 10384 10384 10385 10386 10387 10387 10386 10385 10384 10383 10383 10383 10384 10387 10389 10389 10389 10390 10389 10388 10388 10387 10386 10385 10385 10386 10385 10384 10383 10380 10378 10376 10374 10372 10370 10367 10366 10364 10363 10362 10360 10357 10353 10349 10347 10345 10344 10341 10338 10335 10333 10330 10327 10324 10321 10318
10359 10360 10361 10363 10364 10365 10365 10365 10364 10363 10363 10363 10364 10364 10363 10363 10363 10362 10361 10361 10361 10363 10365 10366 10366 10367 10367 10367 10368 10368 10367 10367 10367 10367 10366 10366 10366 10365 10365 10366 10367 10368 10370 10371 10371 10372 10373 10373 10373 10373 10373 10372 10371 10371 10371 10371 10370 10368 10366 10364 10362 10361 10359 10357 10355 10354 10352 10351 10350 10348 10345 10342 10339 10337 10335 10334 10331 10328 10326 10323 10320 10317 10315 10312 10308
10341 10340 10340 10342 10343 10344 10346 10347 10346 10345 10345 10345 10346 10347 10346 10346 10346 10346 10344 10343 10344 10345 10346 10347 10348 10349 10351 10352 10353 10354 10354 10352 10350 10348 10348 10349 10348 10347 10347 10349 10350 10351 10353 10354 10353 10354 10356 10357 10358 10359 10358 10357 10356 10355 10355 10355 10355 10354 10352 10350 10349 10348 10347 10345 10343 10342 10341 10340 10339 10336 10333 10331 10329 10327 10325 10323 10321 10319 10316 10313 10311 10308 10306 10302 10299
10324 10323 10321 10321 10322 10324 10325 10327 10327 10327 10326 10327 10328 10329 10329 10329 10330 10330 10328 10327 10328 10329 10329 10329 10329 10329 10331 10334 10336 10338 10339 10337 10334 10332 10332 10332 10332 10330 10330 10332 10332 10333 10335 10337 10338 10338 10339 10340 10343 10344 10343 10342 10341 10340 10340 10341 10341 10340 10338 10337 10336 10335 10334 10333 10332 10331 10330 10329 10327 10325 10322 10321 10319 10317 10314 10312 10311 10309 10306 10304 10301 10299 10296 10293 10290
10306 10305 10303 10301 10301 10302 10304 10306 10307 10308 10308 10309 10309 10310 10311 10312 10314 10315 10313 10312 10313 10314 10313 10312 10311 10310 10311 10313 10315 10318 10321 10320 10318 10318 10317 10316 10314 10313 10314 10314 10314 10315 10317 10319 10322 10324 10324 10325 10327 10329 10329 10328 10328 10328 10328 10328 10327 10326 10326 10325 10325 10323 10323 10322 10322 10321 10320 10318 10316 10314 10312 10311 10310 10307 10304 10302 10301 10299 10296 10294 10292 10289 10286 10283 10280
10286 10285 10285 10284 10283 10283 10284 10285 10286 10288 10290 10291 10291 10291 10292 10293 10295 10297 10297 10295 10295 10296 10296 10295 10293 10292 10293 10294 10293 10296 10300 10301 10301 10302 10302 10300 10298 10297 10297 10297 10297 10297 10299 10301 10304 10308 10310 10311 10313 10315 10315 10314 10315 10316 10316 10316 10316 10315 10314 10313 10312 10312 10312 10311 10311 10311 10309 10307 10305 10303 10302 10302 10300 10297 10294 10293 10291 10289 10287 10285 10283 10280 10277 10273 10270
10266 10265 10265 10265 10265 10265 10265 10265 10266 10267 10269 10271 10272 10273 10274 10274 10275 10277 10279 10280 10279 10277 10277 10277 10275 10273 10274 10275 10275 10275 10277 10279 10281 10282 10284 10283 10282 10280 10280 10281 10281 10281 10281 10283 10286 10290 10293 10295 10297 10299 10299 10300 10302 10303 10303 10303 10303 10303 10302 10301 10300 10300 10300 10301 10301 10300 10298 10297 10295 10293 10292 10291 10289 10287 10285 10283 10281 10279 10277 10275 10273 10270 10267 10263 10261
10247 10247 10246 10245 10246 10247 10247 10248 10248 10249 10250 10251 10253 10255 10257 10258 10257 10257 10258 10261 10263 10262 10259 10258 10256 10255 10255 10255 10256 10257 10257 10258 10259 10261 10263 10264 10264 10263 10263 10265 10266 10266 10266 10268 10270 10273 10275 10277 10279 10282 10283 10285 10287 10288 10289 10289 10290 10290 10289 10289 10288 10288 10289 10290 10290 10289 10288 10287 10285 10283 10282 10281 10279 10277 10274 10273 10272 10270 10267 10265 10263 10260 10257 10254 10251
10229 10229 10228 10227 10227 10228 10229 10231 10232 10232 10233 10234 10234 10235 10237 10240 10242 10242 10239 10239 10241 10243 10243 10241 10239 10238 10237 10236 10237 10238 10238 10238 10239 10240 10242 10244 10245 10246 10246 10248 10249 10250 10251 10252 10254 10256 10258 10260 10263 10265 10268 10269 10270 10271 10273 10275 10276 10277 10277 10277 10277 10276 10277 10279 10279 10279 10278 10276 10275 10274 10272 10270 10268 10266 10264 10263 10262 10260 10257 10255 10253 10250 10247 10244 10241
10211 10212 10212 10212 10211 10211 10212 10213 10215 10216 10217 10217 10217 10218 10219 10220 10223 10225 10225 10223 10221 10222 10223 10223 10222 10222 10221 10219 10219 10219 10220 10221 10222 10222 10223 10224 10226 10228 10230 10232 10233 10234 10234 10236 10238 10240 10242 10244 10247 10249 10251 10254 10255 10256 10258 10260 10261 10263 10263 10263 10263 10264 10265 10267 10267 10266 10266 10265 10264 10263 10262 10260 10257 10255 10254 10253 10252 10250 10247 10245 10242 10239 10236 10233 10230
10195 10196 10196 10196 10197 10197 10197 10197 10198 10199 10200 10200 10200 10200 10200 10201 10203 10205 10207 10209 10208 10206 10205 10203 10204 10206 10206 10204 10202 10201 10203 10205 10205 10206 10207 10208 10208 10209 10213 10216 10217 10217 10218 10220 10222 10223 10225 10228 10231 10233 10235 10238 10240 10242 10243 10245 10246 10248 10249 10249 10250 10251 10252 10253 10254 10254 10253 10253 10252 10252 10251 10249 10247 10245 10244 10243 10241 10239 10237 10234 10231 10228 10225 10222 10219
10179 10180 10181 10181 10182 10183 10184 10183 10183 10182 10182 10182 10183 10182 10183 10183 10184 10186 10188 10190 10192 10194 10193 10190 10189 10189 10190 10189 10186 10185 10186 10188 10189 10190 10192 10192 10192 10193 10196 10199 10201 10201 10203 10205 10205 10207 10209 10212 10215 10218 10220 10222 10225 10227 10228 10230 10232 10233 10234 10235 10236 10238 10239 10240 10241 10241 10241 10241 10241 10240 10239 10238 10237 10236 10234 10233 10231 10228 10226 10224 10220 10217 10214 10210 10208
10163 10164 10165 10165 10166 10167 10168 10168 10167 10167 10167 10166 10166 10166 10166 10167 10168 10169 10171 10173 10174 10177 10179 10179 10177 10176 10175 10174 10171 10171 10172 10172 10172 10174 10176 10176 10177 10178 10181 10183 10185 10186 10188 10190 10190 10191 10194 10196 10198 10202 10204 10207 10210 10211 10213 10215 10217 10219 10220 10222 10223 10224 10225 10227 10228 10228 10229 10230 10229 10228 10227 10226 10226 10225 10224 10222 10221 10218 10215 10212 10209 10206 10203 10199 10197
10148 10149 10149 10148 10149 10150 10150 10151 10151 10151 10151 10152 10152 10151 10152 10153 10153 10154 10155 10156 10157 10159 10162 10164 10164 10163 10162 10160 10157 10157 10157 10157 10158 10159 10159 10160 10162 10164 10166 10168 10170 10172 10173 10174 10175 10177 10179 10180 10182 10185 10189 10192 10194 10196 10198 10200 10202 10204 10206 10208 10209 10210 10211 10213 10215 10215 10217 10217 10216 10215 10215 10214 10214 10214 10213 10211 10210 10207 10204 10201 10198 10195 10191 10188 10185
10130 10131 10131 10130 10131 10131 10132 10133 10134 10134 10135 10136 10136 10136 10137 10138 10138 10139 10139 10140 10141 10142 10144 10146 10147 10147 10147 10145 10143 10142 10142 10142 10143 10143 10144 10144 10146 10148 10150 10152 10155 10157 10159 10160 10161 10162 10164 10166 10168 10170 10173 10176 10178 10181 10183 10185 10188 10190 10193 10194 10195 10196 10198 10200 10201 10202 10203 10204 10203 10203 10203 10203 10203 10203 10202 10200 10198 10195 10192 10190 10187 10184 10180 10177 10174
10113 10113 10113 10112 10112 10113 10114 10116 10117 10117 10118 10119 10119 10120 10121 10121 10122 10123 10123 10124 10125 10125 10126 10127 10129 10129 10128 10128 10127 10126 10126 10127 10127 10127 10128 10129 10130 10131 10133 10136 10138 10141 10144 10146 10147 10148 10149 10151 10154 10156 10158 10161 10163 10166 10168 10171 10174 10177 10179 10180 10181 10183 10184 10185 10187 10188 10190 10190 10190 10191 10191 10191 10192 10192 10190 10188 10186 10183 10180 10178 10176 10172 10169 10165 10163
10097 10097 10096 10095 10094 10095 10096 10097 10098 10098 10099 10100 10101 10101 10102 10103 10103 10104 10105 10105 10106 10107 10107 10108 10109 10109 10108 10109 10109 10108 10108 10110 10111 10111 10111 10112 10113 10113 10115 10118 10121 10125 10128 10130 10132 10133 10134 10137 10139 10142 10144 10146 10148 10151 10154 10157 10159 10162 10164 10166 10167 10169 10170 10172 10174 10175 10177 10177 10178 10178 10179 10180 10180 10179 10178 10175 10173 10170 10168 10167 10164 10160 10157 10154 10153
10080 10080 10080 10078 10077 10077 10077 10078 10078 10078 10079 10080 10080 10081 10081 10082 10082 10083 10084 10086 10087 10088 10089 10090 10090 10090 10089 10090 10090 10089 10090 10092 10093 10093 10094 10095 10095 10095 10097 10100 10103 10108 10111 10114 10116 10118 10119 10122 10124 10127 10129 10132 10134 10136 10139 10142 10145 10147 10149 10151 10153 10155 10157 10160 10162 10163 10164 10165 10165 10166 10167 10168 10168 10166 10164 10162 10160 10158 10157 10155 10152 10149 10146 10143 10142
10061 10062 10061 10060 10060 10060 10060 10061 10061 10061 10061 10061 10062 10062 10062 10063 10064 10064 10065 10067 10068 10068 10069 10071 10072 10071 10070 10070 10070 10070 10070 10072 10074 10075 10075 10076 10076 10077 10079 10081 10085 10089 10093 10096 10099 10101 10103 10106 10109 10112 10114 10117 10119 10122 10125 10127 10130 10133 10135 10137 10139 10141 10144 10146 10148 10150 10151 10152 10152 10154 10154 10155 10154 10152 10150 10148 10147 10146 10144 10142 10139 10137 10135 10132 10131
10043 10043 10043 10043 10043 10042 10043 10043 10043 10043 10043 10044 10044 10044 10044 10044 10045 10046 10047 10048 10049 10049 10050 10051 10053 10052 10052 10052 10051 10050 10051 10053 10054 10055 10056 10057 10058 10059 10060 10062 10065 10069 10073 10077 10081 10084 10086 10089 10092 10095 10099 10102 10104 10107 10110 10112 10115 10118 10120 10123 10125 10127 10130 10132 10134 10136 10137 10138 10140 10141 10141 10140 10140 10138 10136 10135 10134 10133 10131 10130 10128 10126 10124 10122 10121
10026 10026 10026 10026 10026 10026 10026 10025 10025 10025 10025 10025 10026 10026 10026 10025 10026 10027 10028 10029 10030 10030 10030 10031 10032 10033 10033 10034 10033 10032 10033 10034 10035 10036 10037 10038 10039 10040 10041 10043 10045 10048 10052 10057 10061 10065 10069 10072 10075 10078 10082 10085 10089 10092 10095 10097 10100 10103 10105 10108 10110 10113 10115 10117 10119 10121 10124 10125 10126 10126 10126 10125 10125 10124 10122 10121 10121 10120 10119 10117 10116 10114 10113 10111 10110
10011 10011 10011 10011 10011 10010 10010 10009 10008 10008 10008 10008 10008 10008 10008 10008 10008 10009 10009 10010 10011 10011 10011 10012 10013 10013 10014 10015 10015 10015 10015 10015 10016 10017 10018 10019 10020 10022 10023 10024 10026 10028 10032 10036 10040 10044 10049 10053 10057 10061 10064 10068 10072 10076 10079 10082 10085 10087 10090 10093 10096 10098 10100 10103 10105 10107 10109 10110 10111 10111 10111 10111 10110 10109 10109 10108 10108 10107 10106 10105 10104 10102 10101 10100 10100
9997 9997 9996 9995 9995 9994 9993 9992 9992 9991 9991 9991 9990 9991 9991 9991 9991 9991 9991 9992 9992 9993 9993 9994 9995 9995 9996 9997 9997 9998 9998 9998 9999 10001 10001 10002 10003 10004 10005 10007 10008 10011 10013 10016 10019 10024 10029 10034 10038 10042 10046 10050 10054 10058 10062 10065 10069 10072 10075 10078 10081 10083 10085 10087 10090 10092 10094 10095 10096 10096 10096 10096 10096 10096 10095 10095 10095 10094 10093 10092 10091 10090 10089 10089 10088
9979 9978 9978 9977 9977 9977 9976 9976 9975 9975 9975 9975 9974 9974 9975 9975 9975 9975 9975 9975 9975 9975 9976 9976 9977 9978 9979 9979 9980 9980 9980 9981 9982 9983 9984 9984 9985 9986 9987 9989 9992 9994 9996 9998 10001 10004 10009 10014 10019 10023 10027 10031 10035 10040 10045 10049 10052 10056 10059 10062 10065 10067 10070 10072 10075 10077 10079 10080 10081 10081 10082 10082 10082 10082 10082 10082 10081 10081 10080 10080 10079 10078 10077 10077 10076
9963 9962 9962 9961 9960 9960 9959 9959 9959 9958 9958 9958 9958 9958 9959 9959 9959 9959 9959 9959 9959 9959 9959 9960 9960 9961 9962 9962 9963 9963 9963 9964 9964 9965 9966 9966 9966 9968 9970 9973 9975 9978 9980 9982 9984 9986 9989 9994 10000 10005 10009 10013 10017 10022 10027 10032 10036 10039 10043 10046 10049 10051 10054 10057 10059 10061 10063 10064 10065 10066 10067 10068 10068 10068 10068 10068 10068 10068 10068 10067 10066 10065 10064 10063 10063
9949 9948 9947 9946 9945 9944 9944 9944 9944 9943 9943 9943 9942 9942 9942 9942 9942 9942 9943 9943 9943 9943 9943 9943 9944 9944 9945 9946 9946 9946 9947 9947 9948 9948 9949 9949 9950 9951 9954 9956 9958 9961 9963 9966 9968 9970 9972 9976 9982 9988 9993 9996 10000 10004 10009 10014 10019 10023 10026 10030 10033 10036 10039 10041 10043 10045 10047 10049 10050 10051 10052 10053 10054 10054 10054 10054 10055 10055 10054 10054 10053 10052 10051 10050 10050
9934 9932 9931 9930 9930 9929 9929 9928 9928 9928 9927 9927 9927 9926 9926 9926 9925 9925 9926 9926 9926 9927 9927 9927 9928 9928 9929 9930 9930 9931 9932 9932 9932 9932 9933 9933 9934 9935 9937 9939 9942 9945 9947 9950 9953 9955 9957 9960 9965 9970 9976 9980 9983 9987 9992 9997 10002 10006 10010 10014 10017 10020 10023 10025 10027 10029 10031 10033 10035 10036 10038 10039 10039 10039 10040 10040 10041 10041 10040 10040 10040 10039 10038 10038 10037